ROMMA est une association bénévole à but non lucratif. Votre soutien est indispensable : ADHERER à ROMMA ou FAIRE un DON

Le Versoud - (38, Isère)

Vallée du Grésivaudan (220 m)   Longitude: 05° 51' 44" E   Latitude: 45° 13' 06" N Station partenaire n°6
 

Détail journalier du     <<     >>

Température Humidité Pression Vent Dir Rafale Dir. rafale Ensol.
Heure (°C) (%) (hPa) (km/h) (km/h) (min)
01:00 22.173101100---0
02:00 21.176101100---0
03:00 21.274101200---0
04:00 21.075101200---0
05:00 20.878101200---0
06:00 19.387101202NNE0
07:00 18.49110121---15N0
08:00 18.59110121---15N0
09:00 19.990101302OSO5
10:00 21.086101202N0
11:00 23.175101206OSO10
12:00 24.268101202OSO30
13:00 26.1601011010SO45
14:00 27.460101106SO35
15:00 26.759101006OSO25
16:00 27.55610112SSO18S15
17:00 23.47810113S23SSE0
18:00 21.587101100---0
19:00 23.280101102N35
20:00 22.9771011010NNE30
21:00 22.181101103NNO60
22:00 21.085101100---0
23:00 20.088101200---0
minuit 20.088101200---0

Graphique du 09-07-2019

 

Serveur OMMA